Time,TemperatureF,DewpointF,PressureIn,WindDirection,WindDirectionDegrees,WindSpeedMPH,WindSpeedGustMPH,Humidity,HourlyPrecipIn,Conditions,Clouds,dailyrainin,SoftwareType,DateUTC
2013-07-02 00:01:00,79.3,76.1,29.92,East,92,0.0,0.0,90,0.00,,---,0.00,VWS V14.01,2013-07-02 05:01:00,
2013-07-02 00:06:00,79.2,76.0,29.92,East,91,0.0,0.0,90,0.00,,---,0.00,VWS V14.01,2013-07-02 05:06:00,
2013-07-02 00:11:00,79.1,75.9,29.92,East,91,0.0,0.0,90,0.00,,---,0.00,VWS V14.01,2013-07-02 05:11:00,
2013-07-02 00:16:00,79.1,75.9,29.92,East,92,0.0,0.0,90,0.00,,---,0.00,VWS V14.01,2013-07-02 05:16:00,
2013-07-02 00:21:00,79.1,75.9,29.92,East,91,0.0,0.0,90,0.00,,---,0.00,VWS V14.01,2013-07-02 05:21:00,
2013-07-02 00:26:00,79.1,75.9,29.92,East,91,0.0,0.0,90,0.00,,---,0.00,VWS V14.01,2013-07-02 05:26:00,
2013-07-02 00:31:00,79.0,75.8,29.92,East,91,0.0,0.0,90,0.00,,---,0.00,VWS V14.01,2013-07-02 05:31:00,
2013-07-02 00:36:00,78.9,75.4,29.93,East,91,0.0,0.0,89,0.00,,---,0.00,VWS V14.01,2013-07-02 05:36:00,
2013-07-02 00:41:00,78.7,75.2,29.93,East,91,0.0,0.0,89,0.00,,---,0.00,VWS V14.01,2013-07-02 05:41:00,
2013-07-02 00:46:00,78.6,75.1,29.93,East,91,0.0,0.0,89,0.00,,---,0.00,VWS V14.01,2013-07-02 05:46:00,
2013-07-02 00:51:00,78.5,75.0,29.93,East,91,0.0,0.0,89,0.00,,---,0.00,VWS V14.01,2013-07-02 05:51:00,
2013-07-02 00:56:00,78.4,74.9,29.93,East,91,0.0,0.0,89,0.00,,---,0.00,VWS V14.01,2013-07-02 05:56:00,
2013-07-02 01:01:00,78.4,74.9,29.93,East,91,0.0,0.0,89,0.00,,---,0.00,VWS V14.01,2013-07-02 06:01:00,
2013-07-02 01:06:00,78.3,74.8,29.93,East,91,0.0,0.0,89,0.00,,---,0.00,VWS V14.01,2013-07-02 06:06:00,
2013-07-02 01:11:00,78.2,74.7,29.93,East,91,0.0,0.0,89,0.00,,---,0.00,VWS V14.01,2013-07-02 06:11:00,
2013-07-02 01:16:00,78.1,74.6,29.93,East,91,0.0,0.0,89,0.00,,---,0.00,VWS V14.01,2013-07-02 06:16:00,
2013-07-02 01:21:00,78.1,74.6,29.93,East,91,0.0,0.0,89,0.00,,---,0.00,VWS V14.01,2013-07-02 06:21:00,
2013-07-02 01:26:00,78.2,74.7,29.93,East,91,0.0,0.0,89,0.00,,---,0.00,VWS V14.01,2013-07-02 06:26:00,
2013-07-02 01:31:00,78.2,74.7,29.93,East,91,0.0,0.0,89,0.00,,---,0.00,VWS V14.01,2013-07-02 06:31:00,
2013-07-02 01:36:00,78.2,74.4,29.93,East,91,0.0,0.0,88,0.00,,---,0.00,VWS V14.01,2013-07-02 06:36:00,
2013-07-02 01:41:00,78.3,74.5,29.93,East,91,0.0,0.0,88,0.00,,---,0.00,VWS V14.01,2013-07-02 06:41:00,
2013-07-02 01:46:00,78.4,74.6,29.92,East,91,0.0,0.0,88,0.00,,---,0.00,VWS V14.01,2013-07-02 06:46:00,
2013-07-02 01:51:00,78.4,74.6,29.93,East,91,0.0,0.0,88,0.00,,---,0.00,VWS V14.01,2013-07-02 06:51:00,
2013-07-02 01:56:00,78.5,74.7,29.93,East,90,0.0,0.0,88,0.00,,---,0.00,VWS V14.01,2013-07-02 06:56:00,
2013-07-02 02:01:00,78.6,74.4,29.92,NE,53,0.0,0.0,87,0.00,,---,0.00,VWS V14.01,2013-07-02 07:01:00,
2013-07-02 02:06:00,78.7,74.5,29.92,NE,53,0.0,0.0,87,0.00,,---,0.00,VWS V14.01,2013-07-02 07:06:00,
2013-07-02 02:11:00,78.8,74.6,29.92,ENE,70,0.0,0.0,87,0.00,,---,0.00,VWS V14.01,2013-07-02 07:11:00,
2013-07-02 02:16:00,78.9,74.4,29.92,ENE,68,0.0,0.0,86,0.00,,---,0.00,VWS V14.01,2013-07-02 07:16:00,
2013-07-02 02:21:00,79.0,74.5,29.92,ENE,68,0.0,0.0,86,0.00,,---,0.00,VWS V14.01,2013-07-02 07:21:00,
2013-07-02 02:26:00,79.1,74.6,29.92,ENE,69,0.0,0.0,86,0.00,,---,0.00,VWS V14.01,2013-07-02 07:26:00,
2013-07-02 02:31:00,79.1,74.6,29.92,ENE,69,0.0,0.0,86,0.00,,---,0.00,VWS V14.01,2013-07-02 07:31:00,
2013-07-02 02:36:00,79.2,74.3,29.92,ENE,70,0.0,0.0,85,0.00,,---,0.00,VWS V14.01,2013-07-02 07:36:00,
2013-07-02 02:41:00,79.3,74.4,29.92,ENE,69,0.0,0.0,85,0.00,,---,0.00,VWS V14.01,2013-07-02 07:41:00,
2013-07-02 02:46:00,79.3,74.4,29.92,ENE,69,0.0,0.0,85,0.00,,---,0.00,VWS V14.01,2013-07-02 07:46:00,
2013-07-02 02:51:00,79.3,74.4,29.92,ENE,69,0.0,0.0,85,0.00,,---,0.00,VWS V14.01,2013-07-02 07:51:00,
2013-07-02 02:56:00,79.3,74.4,29.92,ENE,69,0.0,0.0,85,0.00,,---,0.00,VWS V14.01,2013-07-02 07:56:00,
2013-07-02 03:01:00,79.3,74.1,29.92,ENE,69,0.0,0.0,84,0.00,,---,0.00,VWS V14.01,2013-07-02 08:01:00,
2013-07-02 03:06:00,79.3,74.1,29.92,ENE,64,0.0,0.0,84,0.00,,---,0.00,VWS V14.01,2013-07-02 08:06:00,
2013-07-02 03:11:00,79.4,74.2,29.92,ENE,65,0.0,0.0,84,0.00,,---,0.00,VWS V14.01,2013-07-02 08:11:00,
2013-07-02 03:16:00,79.4,73.8,29.92,ENE,71,0.0,0.0,83,0.00,,---,0.00,VWS V14.01,2013-07-02 08:16:00,
2013-07-02 03:21:00,79.4,73.8,29.91,ENE,65,0.0,0.0,83,0.00,,---,0.00,VWS V14.01,2013-07-02 08:21:00,
2013-07-02 03:26:00,79.4,73.8,29.92,ENE,65,0.0,0.0,83,0.00,,---,0.00,VWS V14.01,2013-07-02 08:26:00,
2013-07-02 03:30:00,79.4,73.8,29.92,ENE,65,0.0,0.0,83,0.00,,---,0.00,VWS V14.01,2013-07-02 08:30:00,
2013-07-02 03:35:00,79.4,73.8,29.92,ENE,65,0.0,0.0,83,0.00,,---,0.00,VWS V14.01,2013-07-02 08:35:00,
2013-07-02 03:40:00,79.4,73.8,29.92,ENE,65,0.0,0.0,83,0.00,,---,0.00,VWS V14.01,2013-07-02 08:40:00,
2013-07-02 03:45:00,79.4,73.8,29.91,ENE,65,0.0,0.0,83,0.00,,---,0.00,VWS V14.01,2013-07-02 08:45:00,
2013-07-02 03:50:00,79.4,73.8,29.92,ENE,65,0.0,0.0,83,0.00,,---,0.00,VWS V14.01,2013-07-02 08:50:00,
2013-07-02 03:55:00,79.4,73.8,29.92,ENE,65,0.0,0.0,83,0.00,,---,0.00,VWS V14.01,2013-07-02 08:55:00,
2013-07-02 04:00:00,79.4,73.8,29.92,ENE,65,0.0,0.0,83,0.00,,---,0.00,VWS V14.01,2013-07-02 09:00:00,
2013-07-02 04:05:00,79.3,73.7,29.92,ENE,65,0.0,0.0,83,0.00,,---,0.00,VWS V14.01,2013-07-02 09:05:00,
2013-07-02 04:10:00,79.3,73.3,29.92,ENE,65,0.0,0.0,82,0.00,,---,0.00,VWS V14.01,2013-07-02 09:10:00,
2013-07-02 04:15:00,79.2,73.2,29.92,ENE,65,0.0,0.0,82,0.00,,---,0.00,VWS V14.01,2013-07-02 09:15:00,
2013-07-02 04:20:00,79.1,73.1,29.92,ENE,65,0.0,0.0,82,0.00,,---,0.00,VWS V14.01,2013-07-02 09:20:00,
2013-07-02 04:25:00,79.1,73.1,29.92,ENE,65,0.0,0.0,82,0.00,,---,0.00,VWS V14.01,2013-07-02 09:25:00,
2013-07-02 04:30:00,79.0,73.0,29.92,ENE,65,0.0,0.0,82,0.00,,---,0.00,VWS V14.01,2013-07-02 09:30:00,
2013-07-02 04:35:00,78.9,73.3,29.92,ENE,65,0.0,0.0,83,0.00,,---,0.00,VWS V14.01,2013-07-02 09:35:00,
2013-07-02 04:40:00,78.8,73.2,29.92,ENE,65,0.0,0.0,83,0.00,,---,0.00,VWS V14.01,2013-07-02 09:40:00,
2013-07-02 04:45:00,78.7,73.1,29.92,ENE,65,0.0,0.0,83,0.00,,---,0.00,VWS V14.01,2013-07-02 09:45:00,
2013-07-02 04:50:00,78.7,73.1,29.91,ENE,65,0.0,0.0,83,0.00,,---,0.00,VWS V14.01,2013-07-02 09:50:00,
2013-07-02 04:55:00,78.8,73.2,29.91,ENE,65,0.0,0.0,83,0.00,,---,0.00,VWS V14.01,2013-07-02 09:55:00,
2013-07-02 05:00:00,78.8,73.2,29.91,ENE,65,0.0,0.0,83,0.00,,---,0.00,VWS V14.01,2013-07-02 10:00:00,
2013-07-02 05:05:00,78.8,73.6,29.92,ENE,65,0.0,0.0,84,0.00,,---,0.00,VWS V14.01,2013-07-02 10:05:00,
2013-07-02 05:10:00,78.8,73.2,29.92,ENE,65,0.0,0.0,83,0.00,,---,0.00,VWS V14.01,2013-07-02 10:10:00,
2013-07-02 05:15:00,78.7,73.1,29.92,ENE,65,0.0,0.0,83,0.00,,---,0.00,VWS V14.01,2013-07-02 10:15:00,
2013-07-02 05:20:00,78.7,73.1,29.92,ENE,65,0.0,0.0,83,0.00,,---,0.00,VWS V14.01,2013-07-02 10:20:00,
2013-07-02 05:25:00,78.6,73.0,29.93,ENE,65,0.0,0.0,83,0.00,,---,0.00,VWS V14.01,2013-07-02 10:25:00,
2013-07-02 05:30:00,78.6,73.0,29.93,ENE,65,0.0,0.0,83,0.00,,---,0.00,VWS V14.01,2013-07-02 10:30:00,
2013-07-02 05:35:00,78.5,72.9,29.93,ENE,65,0.0,0.0,83,0.00,,---,0.00,VWS V14.01,2013-07-02 10:35:00,
2013-07-02 05:40:00,78.4,72.8,29.93,ENE,65,0.0,0.0,83,0.00,,---,0.00,VWS V14.01,2013-07-02 10:40:00,
2013-07-02 05:45:00,78.4,72.8,29.93,ENE,65,0.0,0.0,83,0.00,,---,0.00,VWS V14.01,2013-07-02 10:45:00,
2013-07-02 05:50:00,78.3,72.7,29.93,NE,55,0.0,0.0,83,0.00,,---,0.00,VWS V14.01,2013-07-02 10:50:00,
2013-07-02 05:55:00,78.4,73.2,29.93,NNE,32,0.0,0.0,84,0.00,,---,0.00,VWS V14.01,2013-07-02 10:55:00,
2013-07-02 06:00:00,78.6,73.0,29.93,NE,36,0.0,0.0,83,0.00,,---,0.00,VWS V14.01,2013-07-02 11:00:00,
2013-07-02 06:05:00,78.7,72.8,29.93,NE,45,0.0,0.0,82,0.00,,---,0.00,VWS V14.01,2013-07-02 11:05:00,
2013-07-02 06:10:00,78.6,72.3,29.94,NE,45,0.0,0.0,81,0.00,,---,0.00,VWS V14.01,2013-07-02 11:10:00,
2013-07-02 06:15:00,78.6,71.6,29.94,NE,43,0.0,0.0,79,0.00,,---,0.00,VWS V14.01,2013-07-02 11:15:00,
2013-07-02 06:20:00,78.6,71.2,29.94,NE,44,0.0,0.0,78,0.00,,---,0.00,VWS V14.01,2013-07-02 11:20:00,
2013-07-02 06:25:00,78.7,70.9,29.94,NE,44,0.0,0.0,77,0.00,,---,0.00,VWS V14.01,2013-07-02 11:25:00,
2013-07-02 06:30:00,78.7,70.5,29.94,NE,44,0.0,0.0,76,0.00,,---,0.00,VWS V14.01,2013-07-02 11:30:00,
2013-07-02 06:35:00,78.7,70.5,29.94,NE,44,0.0,0.0,76,0.00,,---,0.00,VWS V14.01,2013-07-02 11:35:00,
2013-07-02 06:40:00,78.7,70.5,29.95,NE,44,0.0,0.0,76,0.00,,---,0.00,VWS V14.01,2013-07-02 11:40:00,
2013-07-02 06:45:00,78.8,70.6,29.95,NE,44,0.0,0.0,76,0.00,,---,0.00,VWS V14.01,2013-07-02 11:45:00,
2013-07-02 06:50:00,78.8,70.6,29.94,NE,44,0.0,0.0,76,0.00,,---,0.00,VWS V14.01,2013-07-02 11:50:00,
2013-07-02 06:55:00,78.7,70.1,29.95,NE,44,0.0,0.0,75,0.00,,---,0.00,VWS V14.01,2013-07-02 11:55:00,
2013-07-02 07:00:00,78.7,70.1,29.94,ENE,69,0.0,0.0,75,0.00,,---,0.00,VWS V14.01,2013-07-02 12:00:00,
2013-07-02 07:05:00,78.7,69.7,29.95,ENE,68,0.0,0.0,74,0.00,,---,0.00,VWS V14.01,2013-07-02 12:05:00,
2013-07-02 07:10:00,78.7,69.7,29.95,ENE,68,0.0,0.0,74,0.00,,---,0.00,VWS V14.01,2013-07-02 12:10:00,
2013-07-02 07:15:00,78.8,70.2,29.95,ENE,68,0.0,0.0,75,0.00,,---,0.00,VWS V14.01,2013-07-02 12:15:00,
2013-07-02 07:20:00,78.9,71.5,29.95,ENE,68,0.0,0.0,78,0.00,,---,0.00,VWS V14.01,2013-07-02 12:20:00,
2013-07-02 07:25:00,78.8,71.0,29.95,ENE,68,0.0,0.0,77,0.00,,---,0.00,VWS V14.01,2013-07-02 12:25:00,
2013-07-02 07:30:00,78.8,71.4,29.95,ENE,68,0.0,0.0,78,0.00,,---,0.00,VWS V14.01,2013-07-02 12:30:00,
2013-07-02 07:35:00,78.7,71.3,29.95,ENE,68,0.0,0.0,78,0.00,,---,0.00,VWS V14.01,2013-07-02 12:35:00,
2013-07-02 07:40:00,78.7,71.3,29.95,North,351,0.0,0.0,78,0.00,,---,0.00,VWS V14.01,2013-07-02 12:40:00,
2013-07-02 07:45:00,78.7,71.3,29.96,North,351,0.0,0.0,78,0.00,,---,0.00,VWS V14.01,2013-07-02 12:45:00,
2013-07-02 07:50:00,78.7,71.6,29.96,North,351,0.0,0.0,79,0.00,,---,0.00,VWS V14.01,2013-07-02 12:50:00,
2013-07-02 07:55:00,78.7,71.6,29.96,North,355,0.0,0.0,79,0.00,,---,0.00,VWS V14.01,2013-07-02 12:55:00,
2013-07-02 08:00:00,78.7,72.0,29.96,ENE,59,0.0,0.0,80,0.00,,---,0.00,VWS V14.01,2013-07-02 13:00:00,
2013-07-02 08:05:00,78.9,72.2,29.96,ENE,57,0.0,0.0,80,0.00,,---,0.00,VWS V14.01,2013-07-02 13:05:00,
2013-07-02 08:10:00,78.9,71.5,29.97,ESE,121,0.0,0.0,78,0.00,,---,0.00,VWS V14.01,2013-07-02 13:10:00,
2013-07-02 08:15:00,79.1,71.7,29.97,ESE,105,0.0,0.0,78,0.00,,---,0.00,VWS V14.01,2013-07-02 13:15:00,
2013-07-02 08:20:00,79.4,71.6,29.97,NE,53,0.0,0.0,77,0.00,,---,0.00,VWS V14.01,2013-07-02 13:20:00,
2013-07-02 08:25:00,79.8,71.6,29.97,SSE,157,0.0,0.0,76,0.00,,---,0.00,VWS V14.01,2013-07-02 13:25:00,
2013-07-02 08:30:00,80.3,72.1,29.97,SSE,155,0.0,0.0,76,0.00,,---,0.00,VWS V14.01,2013-07-02 13:30:00,
2013-07-02 08:35:00,80.7,71.7,29.97,SSE,155,0.0,0.0,74,0.00,,---,0.00,VWS V14.01,2013-07-02 13:35:00,
2013-07-02 08:40:00,81.1,71.6,29.97,SSE,153,0.0,0.0,73,0.00,,---,0.00,VWS V14.01,2013-07-02 13:40:00,
2013-07-02 08:45:00,81.5,71.6,29.97,SSW,200,4.0,4.0,72,0.00,,---,0.00,VWS V14.01,2013-07-02 13:45:00,
2013-07-02 08:50:00,81.8,70.6,29.97,NNE,29,0.0,0.0,69,0.00,,---,0.00,VWS V14.01,2013-07-02 13:50:00,
2013-07-02 08:55:00,82.1,70.5,29.97,NNE,26,0.0,0.0,68,0.00,,---,0.00,VWS V14.01,2013-07-02 13:55:00,
2013-07-02 09:00:00,82.5,70.9,29.97,SSE,158,0.0,0.0,68,0.00,,---,0.00,VWS V14.01,2013-07-02 14:00:00,
2013-07-02 09:05:00,82.7,70.6,29.97,NE,40,0.0,0.0,67,0.00,,---,0.00,VWS V14.01,2013-07-02 14:05:00,
2013-07-02 09:10:00,83.0,70.9,29.97,North,355,1.0,2.0,67,0.00,,---,0.00,VWS V14.01,2013-07-02 14:10:00,
2013-07-02 09:15:00,83.3,71.2,29.97,North,355,4.0,4.0,67,0.00,,---,0.00,VWS V14.01,2013-07-02 14:15:00,
2013-07-02 09:20:00,83.7,71.6,29.97,NNW,337,2.0,2.0,67,0.00,,---,0.00,VWS V14.01,2013-07-02 14:20:00,
2013-07-02 09:25:00,84.0,70.5,29.97,North,355,2.0,4.0,64,0.00,,---,0.00,VWS V14.01,2013-07-02 14:25:00,
2013-07-02 09:30:00,84.2,70.7,29.98,North,350,0.0,0.0,64,0.00,,---,0.00,VWS V14.01,2013-07-02 14:30:00,
2013-07-02 09:35:00,84.5,70.5,29.98,NNW,335,2.0,3.0,63,0.00,,---,0.00,VWS V14.01,2013-07-02 14:35:00,
2013-07-02 09:40:00,84.7,70.7,29.98,NNW,338,0.0,0.0,63,0.00,,---,0.00,VWS V14.01,2013-07-02 14:40:00,
2013-07-02 09:45:00,84.8,69.4,29.98,NW,319,5.0,5.0,60,0.00,,---,0.00,VWS V14.01,2013-07-02 14:45:00,
2013-07-02 09:50:00,84.9,69.5,29.98,NNW,337,5.0,5.0,60,0.00,,---,0.00,VWS V14.01,2013-07-02 14:50:00,
2013-07-02 09:55:00,84.8,68.9,29.98,NNW,333,6.0,7.0,59,0.00,,---,0.00,VWS V14.01,2013-07-02 14:55:00,
2013-07-02 10:00:00,84.7,68.8,29.98,North,349,4.0,5.0,59,0.00,,---,0.00,VWS V14.01,2013-07-02 15:00:00,
2013-07-02 10:05:00,84.6,68.7,29.98,NNW,340,5.0,7.0,59,0.00,,---,0.00,VWS V14.01,2013-07-02 15:05:00,
2013-07-02 10:10:00,84.6,69.2,29.98,North,349,2.0,3.0,60,0.00,,---,0.00,VWS V14.01,2013-07-02 15:10:00,
2013-07-02 10:15:00,84.5,68.6,29.98,NNW,347,2.0,3.0,59,0.00,,---,0.00,VWS V14.01,2013-07-02 15:15:00,
2013-07-02 10:19:00,84.5,67.6,29.98,NNW,329,5.0,6.0,57,0.00,,---,0.00,VWS V14.01,2013-07-02 15:19:00,
2013-07-02 10:24:00,84.6,67.2,29.98,NNW,340,3.0,4.0,56,0.00,,---,0.00,VWS V14.01,2013-07-02 15:24:00,
2013-07-02 10:29:00,84.7,67.8,29.98,North,355,2.0,2.0,57,0.00,,---,0.00,VWS V14.01,2013-07-02 15:29:00,
2013-07-02 10:34:00,84.7,67.8,29.98,North,351,4.0,4.0,57,0.00,,---,0.00,VWS V14.01,2013-07-02 15:34:00,
2013-07-02 10:39:00,84.8,67.4,29.99,NNE,25,3.0,3.0,56,0.00,,---,0.00,VWS V14.01,2013-07-02 15:39:00,
2013-07-02 10:44:00,84.9,67.5,29.99,NNW,337,3.0,3.0,56,0.00,,---,0.00,VWS V14.01,2013-07-02 15:44:00,
2013-07-02 10:49:00,85.1,67.7,29.99,NNW,341,4.0,4.0,56,0.00,,---,0.00,VWS V14.01,2013-07-02 15:49:00,
2013-07-02 10:54:00,85.2,66.7,29.99,NNE,14,5.0,5.0,54,0.00,,---,0.00,VWS V14.01,2013-07-02 15:54:00,
2013-07-02 10:59:00,85.6,66.5,29.99,North,355,1.0,1.0,53,0.00,,---,0.00,VWS V14.01,2013-07-02 15:59:00,
2013-07-02 11:04:00,85.9,67.9,29.99,North,351,2.0,6.0,55,0.00,,---,0.00,VWS V14.01,2013-07-02 16:04:00,
2013-07-02 11:09:00,86.2,67.1,29.99,NNW,333,0.0,4.0,53,0.00,,---,0.00,VWS V14.01,2013-07-02 16:09:00,
2013-07-02 11:14:00,86.6,67.4,29.99,North,10,9.0,10.0,53,0.00,,---,0.00,VWS V14.01,2013-07-02 16:14:00,
2013-07-02 11:19:00,86.9,66.0,29.99,North,351,1.0,6.0,50,0.00,,---,0.00,VWS V14.01,2013-07-02 16:19:00,
2013-07-02 11:24:00,87.6,66.1,29.99,North,349,3.0,6.0,49,0.00,,---,0.00,VWS V14.01,2013-07-02 16:24:00,
2013-07-02 11:29:00,88.3,67.3,29.99,NNW,336,4.0,6.0,50,0.00,,---,0.00,VWS V14.01,2013-07-02 16:29:00,
2013-07-02 11:34:00,88.8,67.8,29.99,NE,34,1.0,4.0,50,0.00,,---,0.00,VWS V14.01,2013-07-02 16:34:00,
2013-07-02 11:39:00,89.4,66.5,29.99,WNW,303,6.0,10.0,47,0.00,,---,0.00,VWS V14.01,2013-07-02 16:39:00,
2013-07-02 11:44:00,89.8,67.5,29.99,NE,46,4.0,5.0,48,0.00,,---,0.00,VWS V14.01,2013-07-02 16:44:00,
2013-07-02 11:49:00,90.2,68.5,29.99,NNE,17,7.0,7.0,49,0.00,,---,0.00,VWS V14.01,2013-07-02 16:49:00,
2013-07-02 11:54:00,90.5,67.5,29.98,North,5,0.0,2.0,47,0.00,,---,0.00,VWS V14.01,2013-07-02 16:54:00,
2013-07-02 11:59:00,90.5,67.5,29.99,NNW,340,5.0,5.0,47,0.00,,---,0.00,VWS V14.01,2013-07-02 16:59:00,
2013-07-02 12:04:00,90.7,65.8,29.98,NW,326,2.0,3.0,44,0.00,,---,0.00,VWS V14.01,2013-07-02 17:04:00,
2013-07-02 12:09:00,90.8,66.6,29.98,North,360,0.0,4.0,45,0.00,,---,0.00,VWS V14.01,2013-07-02 17:09:00,
2013-07-02 12:14:00,91.1,66.2,29.98,NNE,19,1.0,1.0,44,0.00,,---,0.00,VWS V14.01,2013-07-02 17:14:00,
2013-07-02 12:19:00,91.3,65.0,29.98,NW,313,7.0,7.0,42,0.00,,---,0.00,VWS V14.01,2013-07-02 17:19:00,
2013-07-02 12:24:00,91.3,66.3,29.98,North,360,0.0,2.0,44,0.00,,---,0.00,VWS V14.01,2013-07-02 17:24:00,
2013-07-02 12:29:00,91.3,66.3,29.98,NE,39,1.0,10.0,44,0.00,,---,0.00,VWS V14.01,2013-07-02 17:29:00,
2013-07-02 12:34:00,91.4,66.4,29.98,North,9,3.0,6.0,44,0.00,,---,0.00,VWS V14.01,2013-07-02 17:34:00,
2013-07-02 12:39:00,91.7,66.1,29.98,SE,146,1.0,3.0,43,0.00,,---,0.00,VWS V14.01,2013-07-02 17:39:00,
2013-07-02 12:44:00,91.1,63.4,29.98,ENE,71,1.0,3.0,40,0.00,,---,0.00,VWS V14.01,2013-07-02 17:44:00,
2013-07-02 12:49:00,90.8,65.9,29.97,East,79,7.0,7.0,44,0.00,,---,0.00,VWS V14.01,2013-07-02 17:49:00,
2013-07-02 12:54:00,90.9,65.3,29.97,NNE,29,0.0,4.0,43,0.00,,---,0.00,VWS V14.01,2013-07-02 17:54:00,
2013-07-02 12:59:00,91.0,63.3,29.97,ESE,111,4.0,5.0,40,0.00,,---,0.00,VWS V14.01,2013-07-02 17:59:00,
2013-07-02 13:04:00,90.2,64.7,29.97,NE,55,4.0,6.0,43,0.00,,---,0.00,VWS V14.01,2013-07-02 18:04:00,
2013-07-02 13:09:00,90.2,64.0,29.97,North,5,3.0,5.0,42,0.00,,---,0.00,VWS V14.01,2013-07-02 18:09:00,
2013-07-02 13:14:00,90.5,67.5,29.97,East,79,0.0,1.0,47,0.00,,---,0.00,VWS V14.01,2013-07-02 18:14:00,
2013-07-02 13:19:00,90.9,64.0,29.97,NE,49,1.0,1.0,41,0.00,,---,0.00,VWS V14.01,2013-07-02 18:19:00,
2013-07-02 13:24:00,91.0,64.7,29.96,East,80,0.0,2.0,42,0.00,,---,0.00,VWS V14.01,2013-07-02 18:24:00,
2013-07-02 13:29:00,90.2,64.0,29.96,SE,128,2.0,4.0,42,0.00,,---,0.00,VWS V14.01,2013-07-02 18:29:00,
2013-07-02 13:34:00,89.9,63.8,29.96,SE,141,1.0,1.0,42,0.00,,---,0.00,VWS V14.01,2013-07-02 18:34:00,
2013-07-02 13:39:00,89.8,64.3,29.96,West,271,3.0,3.0,43,0.00,,---,0.00,VWS V14.01,2013-07-02 18:39:00,
2013-07-02 13:44:00,90.1,65.3,29.96,West,271,0.0,1.0,44,0.00,,---,0.00,VWS V14.01,2013-07-02 18:44:00,
2013-07-02 13:49:00,90.6,64.4,29.95,West,271,0.0,0.0,42,0.00,,---,0.00,VWS V14.01,2013-07-02 18:49:00,
2013-07-02 13:54:00,91.0,64.7,29.95,NE,48,1.0,5.0,42,0.00,,---,0.00,VWS V14.01,2013-07-02 18:54:00,
2013-07-02 13:59:00,90.8,64.6,29.95,NW,309,0.0,0.0,42,0.00,,---,0.00,VWS V14.01,2013-07-02 18:59:00,
2013-07-02 14:04:00,91.0,65.4,29.95,WNW,297,0.0,0.0,43,0.00,,---,0.00,VWS V14.01,2013-07-02 19:04:00,
2013-07-02 14:09:00,91.4,65.8,29.94,West,277,0.0,2.0,43,0.00,,---,0.00,VWS V14.01,2013-07-02 19:09:00,
2013-07-02 14:14:00,91.8,66.1,29.94,SSE,157,0.0,2.0,43,0.00,,---,0.00,VWS V14.01,2013-07-02 19:14:00,
2013-07-02 14:19:00,92.2,65.1,29.94,West,261,0.0,3.0,41,0.00,,---,0.00,VWS V14.01,2013-07-02 19:19:00,
2013-07-02 14:24:00,92.2,64.4,29.94,ENE,72,3.0,3.0,40,0.00,,---,0.00,VWS V14.01,2013-07-02 19:24:00,
2013-07-02 14:29:00,92.0,66.3,29.93,ESE,109,0.0,0.0,43,0.00,,---,0.00,VWS V14.01,2013-07-02 19:29:00,
2013-07-02 14:34:00,92.2,65.1,29.93,NNW,331,6.0,6.0,41,0.00,,---,0.00,VWS V14.01,2013-07-02 19:34:00,
2013-07-02 14:39:00,92.4,65.3,29.93,WNW,288,0.0,2.0,41,0.00,,---,0.00,VWS V14.01,2013-07-02 19:39:00,
2013-07-02 14:44:00,92.4,64.6,29.93,SSW,209,0.0,0.0,40,0.00,,---,0.00,VWS V14.01,2013-07-02 19:44:00,
2013-07-02 14:49:00,92.7,66.3,29.92,North,9,0.0,0.0,42,0.00,,---,0.00,VWS V14.01,2013-07-02 19:49:00,
2013-07-02 14:54:00,92.9,65.0,29.92,NNW,343,0.0,0.0,40,0.00,,---,0.00,VWS V14.01,2013-07-02 19:54:00,
2013-07-02 14:59:00,92.8,64.9,29.92,NNW,331,0.0,4.0,40,0.00,,---,0.00,VWS V14.01,2013-07-02 19:59:00,
2013-07-02 15:04:00,92.6,64.8,29.92,NNW,333,0.0,1.0,40,0.00,,---,0.00,VWS V14.01,2013-07-02 20:04:00,
2013-07-02 15:09:00,92.3,65.2,29.92,NNE,22,2.0,2.0,41,0.00,,---,0.00,VWS V14.01,2013-07-02 20:09:00,
2013-07-02 15:14:00,92.1,64.3,29.92,NE,52,0.0,1.0,40,0.00,,---,0.00,VWS V14.01,2013-07-02 20:14:00,
2013-07-02 15:19:00,92.3,65.9,29.92,NNE,19,0.0,0.0,42,0.00,,---,0.00,VWS V14.01,2013-07-02 20:19:00,
2013-07-02 15:24:00,92.7,64.1,29.92,North,10,0.0,2.0,39,0.00,,---,0.00,VWS V14.01,2013-07-02 20:24:00,
2013-07-02 15:29:00,92.4,66.7,29.92,ESE,105,4.0,5.0,43,0.00,,---,0.00,VWS V14.01,2013-07-02 20:29:00,
2013-07-02 15:34:00,90.9,66.6,29.91,ESE,123,8.0,9.0,45,0.00,,---,0.00,VWS V14.01,2013-07-02 20:34:00,
2013-07-02 15:39:00,89.7,66.8,29.91,SE,145,10.0,11.0,47,0.00,,---,0.00,VWS V14.01,2013-07-02 20:39:00,
2013-07-02 15:44:00,89.3,66.4,29.91,SE,142,9.0,10.0,47,0.00,,---,0.00,VWS V14.01,2013-07-02 20:44:00,
2013-07-02 15:49:00,88.9,66.7,29.91,SE,136,7.0,9.0,48,0.00,,---,0.00,VWS V14.01,2013-07-02 20:49:00,
2013-07-02 15:54:00,88.6,66.4,29.91,SE,146,10.0,10.0,48,0.00,,---,0.00,VWS V14.01,2013-07-02 20:54:00,
2013-07-02 15:59:00,88.3,66.1,29.91,East,98,6.0,9.0,48,0.00,,---,0.00,VWS V14.01,2013-07-02 20:59:00,
2013-07-02 16:04:00,88.8,66.6,29.91,SE,133,10.0,10.0,48,0.00,,---,0.00,VWS V14.01,2013-07-02 21:04:00,
2013-07-02 16:09:00,89.5,66.0,29.91,East,91,3.0,3.0,46,0.00,,---,0.00,VWS V14.01,2013-07-02 21:09:00,
2013-07-02 16:14:00,89.8,66.3,29.91,SSE,148,7.0,7.0,46,0.00,,---,0.00,VWS V14.01,2013-07-02 21:14:00,
2013-07-02 16:19:00,90.0,66.5,29.91,South,189,6.0,7.0,46,0.00,,---,0.00,VWS V14.01,2013-07-02 21:19:00,
2013-07-02 16:24:00,90.6,67.0,29.91,ESE,105,10.0,10.0,46,0.00,,---,0.00,VWS V14.01,2013-07-02 21:24:00,
2013-07-02 16:29:00,90.4,66.2,29.91,ESE,109,5.0,7.0,45,0.00,,---,0.00,VWS V14.01,2013-07-02 21:29:00,
2013-07-02 16:34:00,90.3,66.1,29.90,ESE,108,6.0,6.0,45,0.00,,---,0.00,VWS V14.01,2013-07-02 21:34:00,
2013-07-02 16:39:00,89.4,65.3,29.91,ESE,120,5.0,6.0,45,0.00,,---,0.00,VWS V14.01,2013-07-02 21:39:00,
2013-07-02 16:44:00,88.8,65.4,29.91,ESE,122,7.0,8.0,46,0.00,,---,0.00,VWS V14.01,2013-07-02 21:44:00,
2013-07-02 16:49:00,89.2,66.3,29.90,ESE,117,3.0,10.0,47,0.00,,---,0.00,VWS V14.01,2013-07-02 21:49:00,
2013-07-02 16:54:00,89.4,65.3,29.90,East,98,6.0,13.0,45,0.00,,---,0.00,VWS V14.01,2013-07-02 21:54:00,
2013-07-02 16:59:00,89.2,65.1,29.90,SE,140,7.0,7.0,45,0.00,,---,0.00,VWS V14.01,2013-07-02 21:59:00,
2013-07-02 17:04:00,89.6,65.5,29.90,South,180,7.0,13.0,45,0.00,,---,0.00,VWS V14.01,2013-07-02 22:04:00,
2013-07-02 17:09:00,89.9,64.4,29.90,SE,138,10.0,12.0,43,0.00,,---,0.00,VWS V14.01,2013-07-02 22:09:00,
2013-07-02 17:14:00,90.1,65.3,29.90,ESE,123,9.0,9.0,44,0.00,,---,0.00,VWS V14.01,2013-07-02 22:14:00,
2013-07-02 17:19:00,90.2,65.4,29.90,South,169,13.0,14.0,44,0.00,,---,0.00,VWS V14.01,2013-07-02 22:19:00,
2013-07-02 17:24:00,90.1,64.6,29.90,ESE,112,10.0,14.0,43,0.00,,---,0.00,VWS V14.01,2013-07-02 22:24:00,
2013-07-02 17:29:00,90.1,64.6,29.90,ESE,116,4.0,7.0,43,0.00,,---,0.00,VWS V14.01,2013-07-02 22:29:00,
2013-07-02 17:34:00,89.9,64.4,29.89,ESE,119,7.0,10.0,43,0.00,,---,0.00,VWS V14.01,2013-07-02 22:34:00,
2013-07-02 17:39:00,89.7,64.9,29.90,SE,128,3.0,10.0,44,0.00,,---,0.00,VWS V14.01,2013-07-02 22:39:00,
2013-07-02 17:44:00,89.7,63.6,29.90,SE,126,4.0,7.0,42,0.00,,---,0.00,VWS V14.01,2013-07-02 22:44:00,
2013-07-02 17:49:00,89.6,63.5,29.89,SE,141,6.0,11.0,42,0.00,,---,0.00,VWS V14.01,2013-07-02 22:49:00,
2013-07-02 17:54:00,89.5,63.4,29.90,SSE,155,8.0,8.0,42,0.00,,---,0.00,VWS V14.01,2013-07-02 22:54:00,
2013-07-02 17:58:00,89.5,64.7,29.89,SE,142,5.0,6.0,44,0.00,,---,0.00,VWS V14.01,2013-07-02 22:58:00,
2013-07-02 18:03:00,89.2,65.1,29.89,SSE,159,9.0,10.0,45,0.00,,---,0.00,VWS V14.01,2013-07-02 23:03:00,
2013-07-02 18:08:00,89.1,65.0,29.90,SE,140,4.0,9.0,45,0.00,,---,0.00,VWS V14.01,2013-07-02 23:08:00,
2013-07-02 18:13:00,89.0,64.9,29.90,SSE,153,7.0,14.0,45,0.00,,---,0.00,VWS V14.01,2013-07-02 23:13:00,
2013-07-02 18:18:00,88.7,64.7,29.90,SSE,163,10.0,14.0,45,0.00,,---,0.00,VWS V14.01,2013-07-02 23:18:00,
2013-07-02 18:23:00,88.6,65.2,29.90,SSE,156,10.0,10.0,46,0.00,,---,0.00,VWS V14.01,2013-07-02 23:23:00,
2013-07-02 18:28:00,88.5,65.7,29.90,SSE,165,11.0,11.0,47,0.00,,---,0.00,VWS V14.01,2013-07-02 23:28:00,
2013-07-02 18:29:00,88.6,65.8,29.90,South,188,10.0,11.0,47,0.00,,---,0.00,VWS V14.01,2013-07-02 23:29:00,
2013-07-02 18:34:00,88.4,65.0,29.90,SE,140,7.0,9.0,46,0.00,,---,0.00,VWS V14.01,2013-07-02 23:34:00,
2013-07-02 18:39:00,88.2,64.8,29.90,SSE,153,10.0,10.0,46,0.00,,---,0.00,VWS V14.01,2013-07-02 23:39:00,
2013-07-02 18:44:00,88.1,65.3,29.90,SSE,165,7.0,7.0,47,0.00,,---,0.00,VWS V14.01,2013-07-02 23:44:00,
2013-07-02 18:49:00,88.0,65.3,29.90,SSE,167,9.0,9.0,47,0.00,,---,0.00,VWS V14.01,2013-07-02 23:49:00,
2013-07-02 18:54:00,87.9,65.2,29.90,SSE,154,4.0,6.0,47,0.00,,---,0.00,VWS V14.01,2013-07-02 23:54:00,
2013-07-02 18:59:00,87.7,65.6,29.90,SSE,161,5.0,11.0,48,0.00,,---,0.00,VWS V14.01,2013-07-02 23:59:00,
2013-07-02 19:01:00,87.6,65.5,29.90,SSE,154,5.0,5.0,48,0.00,,---,0.00,VWS V14.01,2013-07-03 00:01:00,
2013-07-02 19:06:00,87.5,65.4,29.90,SSE,158,6.0,9.0,48,0.00,,---,0.00,VWS V14.01,2013-07-03 00:06:00,
2013-07-02 19:11:00,87.4,64.7,29.90,SE,138,10.0,12.0,47,0.00,,---,0.00,VWS V14.01,2013-07-03 00:11:00,
2013-07-02 19:16:00,87.0,65.6,29.90,South,169,11.0,11.0,49,0.00,,---,0.00,VWS V14.01,2013-07-03 00:16:00,
2013-07-02 19:21:00,86.6,65.2,29.90,South,175,8.0,12.0,49,0.00,,---,0.00,VWS V14.01,2013-07-03 00:21:00,
2013-07-02 19:23:00,86.5,65.1,29.90,SSE,161,12.0,12.0,49,0.00,,---,0.00,VWS V14.01,2013-07-03 00:23:00,
2013-07-02 19:24:00,86.5,65.1,29.90,South,173,6.0,6.0,49,0.00,,---,0.00,VWS V14.01,2013-07-03 00:24:00,
2013-07-02 19:28:00,86.4,65.0,29.90,South,180,10.0,15.0,49,0.00,,---,0.00,VWS V14.01,2013-07-03 00:28:00,
2013-07-02 19:33:00,86.1,64.7,29.90,SSE,153,9.0,9.0,49,0.00,,---,0.00,VWS V14.01,2013-07-03 00:33:00,
2013-07-02 19:38:00,85.8,65.0,29.90,SSE,166,6.0,12.0,50,0.00,,---,0.00,VWS V14.01,2013-07-03 00:38:00,
2013-07-02 19:43:00,85.5,65.3,29.90,SSE,163,7.0,7.0,51,0.00,,---,0.00,VWS V14.01,2013-07-03 00:43:00,
2013-07-02 19:48:00,85.2,65.6,29.90,SSE,167,4.0,5.0,52,0.00,,---,0.00,VWS V14.01,2013-07-03 00:48:00,
2013-07-02 19:53:00,84.9,65.9,29.91,SSE,168,7.0,7.0,53,0.00,,---,0.00,VWS V14.01,2013-07-03 00:53:00,
2013-07-02 19:58:00,84.6,66.1,29.91,SSE,161,6.0,6.0,54,0.00,,---,0.00,VWS V14.01,2013-07-03 00:58:00,
2013-07-02 20:00:00,84.5,66.1,29.91,SSE,167,6.0,6.0,54,0.00,,---,0.00,VWS V14.01,2013-07-03 01:00:00,
2013-07-02 20:03:00,84.2,65.8,29.91,South,176,7.0,7.0,54,0.00,,---,0.00,VWS V14.01,2013-07-03 01:03:00,
2013-07-02 20:08:00,83.9,66.5,29.91,South,169,3.0,3.0,56,0.00,,---,0.00,VWS V14.01,2013-07-03 01:08:00,
2013-07-02 20:09:00,83.8,66.4,29.91,SSE,165,4.0,5.0,56,0.00,,---,0.00,VWS V14.01,2013-07-03 01:09:00,
2013-07-02 20:14:00,83.3,66.5,29.91,SSE,165,5.0,7.0,57,0.00,,---,0.00,VWS V14.01,2013-07-03 01:14:00,
2013-07-02 20:19:00,83.0,66.7,29.91,South,175,4.0,5.0,58,0.00,,---,0.00,VWS V14.01,2013-07-03 01:19:00,
2013-07-02 20:24:00,82.6,66.8,29.92,SSE,165,4.0,5.0,59,0.00,,---,0.00,VWS V14.01,2013-07-03 01:24:00,
2013-07-02 20:26:00,82.5,66.7,29.92,SSE,161,4.0,4.0,59,0.00,,---,0.00,VWS V14.01,2013-07-03 01:26:00,
2013-07-02 20:31:00,82.1,66.8,29.92,SSE,147,3.0,4.0,60,0.00,,---,0.00,VWS V14.01,2013-07-03 01:31:00,
2013-07-02 20:36:00,81.8,67.1,29.91,SSE,167,2.0,4.0,61,0.00,,---,0.00,VWS V14.01,2013-07-03 01:36:00,
2013-07-02 20:41:00,81.4,66.7,29.91,South,172,4.0,6.0,61,0.00,,---,0.00,VWS V14.01,2013-07-03 01:41:00,
2013-07-02 20:46:00,81.1,66.9,29.91,South,173,2.0,4.0,62,0.00,,---,0.00,VWS V14.01,2013-07-03 01:46:00,
2013-07-02 20:49:00,80.9,67.1,29.92,South,173,3.0,3.0,63,0.00,,---,0.00,VWS V14.01,2013-07-03 01:49:00,
2013-07-02 20:50:00,80.9,67.1,29.92,South,173,3.0,4.0,63,0.00,,---,0.00,VWS V14.01,2013-07-03 01:50:00,
2013-07-02 20:55:00,80.5,67.2,29.92,SSE,161,3.0,4.0,64,0.00,,---,0.00,VWS V14.01,2013-07-03 01:55:00,
2013-07-02 21:00:00,80.2,67.4,29.92,SSE,153,2.0,3.0,65,0.00,,---,0.00,VWS V14.01,2013-07-03 02:00:00,
2013-07-02 21:05:00,80.0,67.2,29.92,SSE,154,3.0,4.0,65,0.00,,---,0.00,VWS V14.01,2013-07-03 02:05:00,
2013-07-02 21:10:00,79.6,67.7,29.92,SSE,155,0.0,3.0,67,0.00,,---,0.00,VWS V14.01,2013-07-03 02:10:00,
2013-07-02 21:15:00,79.3,67.4,29.92,SSE,155,3.0,3.0,67,0.00,,---,0.00,VWS V14.01,2013-07-03 02:15:00,
2013-07-02 21:20:00,79.0,67.6,29.92,SSE,157,5.0,5.0,68,0.00,,---,0.00,VWS V14.01,2013-07-03 02:20:00,
2013-07-02 21:25:00,78.7,68.1,29.92,SSE,164,5.0,7.0,70,0.00,,---,0.00,VWS V14.01,2013-07-03 02:25:00,
2013-07-02 21:30:00,78.5,67.9,29.92,SSE,167,4.0,4.0,70,0.00,,---,0.00,VWS V14.01,2013-07-03 02:30:00,
2013-07-02 21:32:00,78.5,68.3,29.92,SSE,168,3.0,4.0,71,0.00,,---,0.00,VWS V14.01,2013-07-03 02:32:00,
2013-07-02 21:37:00,78.2,68.0,29.92,South,169,4.0,5.0,71,0.00,,---,0.00,VWS V14.01,2013-07-03 02:37:00,
2013-07-02 21:42:00,77.9,68.2,29.92,South,171,3.0,6.0,72,0.00,,---,0.00,VWS V14.01,2013-07-03 02:42:00,
2013-07-02 21:46:00,77.8,68.1,29.92,SSE,161,4.0,6.0,72,0.00,,---,0.00,VWS V14.01,2013-07-03 02:46:00,
2013-07-02 21:51:00,77.6,68.3,29.92,SSE,164,5.0,5.0,73,0.00,,---,0.00,VWS V14.01,2013-07-03 02:51:00,
2013-07-02 21:56:00,77.5,68.6,29.92,South,182,5.0,5.0,74,0.00,,---,0.00,VWS V14.01,2013-07-03 02:56:00,
2013-07-02 22:01:00,77.2,68.3,29.92,South,188,3.0,5.0,74,0.00,,---,0.00,VWS V14.01,2013-07-03 03:01:00,
2013-07-02 22:02:00,77.1,68.2,29.93,South,189,4.0,4.0,74,0.00,,---,0.00,VWS V14.01,2013-07-03 03:02:00,
2013-07-02 22:07:00,76.8,68.3,29.93,South,190,3.0,5.0,75,0.00,,---,0.00,VWS V14.01,2013-07-03 03:07:00,
2013-07-02 22:12:00,76.6,68.5,29.93,South,190,2.0,4.0,76,0.00,,---,0.00,VWS V14.01,2013-07-03 03:12:00,
2013-07-02 22:17:00,76.4,69.0,29.93,SSW,195,5.0,5.0,78,0.00,,---,0.00,VWS V14.01,2013-07-03 03:17:00,
2013-07-02 22:20:00,76.3,68.9,29.93,SSW,195,5.0,5.0,78,0.00,,---,0.00,VWS V14.01,2013-07-03 03:20:00,
2013-07-02 22:25:00,76.1,69.1,29.93,SSW,195,2.0,4.0,79,0.00,,---,0.00,VWS V14.01,2013-07-03 03:25:00,
2013-07-02 22:30:00,75.9,69.3,29.93,South,169,3.0,4.0,80,0.00,,---,0.00,VWS V14.01,2013-07-03 03:30:00,
2013-07-02 22:35:00,75.9,69.3,29.94,South,172,2.0,4.0,80,0.00,,---,0.00,VWS V14.01,2013-07-03 03:35:00,
2013-07-02 22:39:00,75.8,69.2,29.94,South,173,5.0,5.0,80,0.00,,---,0.00,VWS V14.01,2013-07-03 03:39:00,
2013-07-02 22:44:00,75.9,69.7,29.94,South,174,3.0,4.0,81,0.00,,---,0.00,VWS V14.01,2013-07-03 03:44:00,
2013-07-02 22:49:00,75.8,69.6,29.94,South,178,5.0,6.0,81,0.00,,---,0.00,VWS V14.01,2013-07-03 03:49:00,
2013-07-02 22:54:00,75.8,69.6,29.94,South,186,5.0,5.0,81,0.00,,---,0.00,VWS V14.01,2013-07-03 03:54:00,
2013-07-02 22:59:00,75.7,69.5,29.94,South,183,5.0,5.0,81,0.00,,---,0.00,VWS V14.01,2013-07-03 03:59:00,
2013-07-02 23:00:00,75.7,69.5,29.94,South,184,2.0,4.0,81,0.00,,---,0.00,VWS V14.01,2013-07-03 04:00:00,
2013-07-02 23:01:00,75.7,69.5,29.94,South,184,5.0,5.0,81,0.00,,---,0.00,VWS V14.01,2013-07-03 04:01:00,
2013-07-02 23:03:00,75.7,69.5,29.94,South,183,2.0,3.0,81,0.00,,---,0.00,VWS V14.01,2013-07-03 04:03:00,
2013-07-02 23:04:00,75.6,69.7,29.94,South,183,3.0,3.0,82,0.00,,---,0.00,VWS V14.01,2013-07-03 04:04:00,
2013-07-02 23:09:00,75.5,69.6,29.94,South,178,3.0,3.0,82,0.00,,---,0.00,VWS V14.01,2013-07-03 04:09:00,
2013-07-02 23:14:00,75.4,69.9,29.95,South,176,3.0,4.0,83,0.00,,---,0.00,VWS V14.01,2013-07-03 04:14:00,
2013-07-02 23:19:00,75.4,69.9,29.95,South,175,3.0,3.0,83,0.00,,---,0.00,VWS V14.01,2013-07-03 04:19:00,
2013-07-02 23:24:00,75.3,69.8,29.95,South,178,3.0,5.0,83,0.00,,---,0.00,VWS V14.01,2013-07-03 04:24:00,
2013-07-02 23:29:00,75.1,69.6,29.95,SSE,167,3.0,4.0,83,0.00,,---,0.00,VWS V14.01,2013-07-03 04:29:00,
2013-07-02 23:31:00,75.1,69.6,29.95,South,170,5.0,5.0,83,0.00,,---,0.00,VWS V14.01,2013-07-03 04:31:00,
2013-07-02 23:32:00,75.1,69.9,29.95,South,170,3.0,5.0,84,0.00,,---,0.00,VWS V14.01,2013-07-03 04:32:00,
2013-07-02 23:37:00,75.0,69.8,29.95,South,172,4.0,4.0,84,0.00,,---,0.00,VWS V14.01,2013-07-03 04:37:00,
2013-07-02 23:42:00,74.9,69.7,29.95,South,180,6.0,6.0,84,0.00,,---,0.00,VWS V14.01,2013-07-03 04:42:00,
2013-07-02 23:45:00,74.8,69.7,29.95,South,180,3.0,4.0,84,0.00,,---,0.00,VWS V14.01,2013-07-03 04:45:00,
2013-07-02 23:46:00,74.8,69.7,29.95,South,180,2.0,3.0,84,0.00,,---,0.00,VWS V14.01,2013-07-03 04:46:00,
2013-07-02 23:51:00,74.7,69.9,29.95,South,180,3.0,4.0,85,0.00,,---,0.00,VWS V14.01,2013-07-03 04:51:00,
2013-07-02 23:53:00,74.7,69.9,29.95,South,171,3.0,4.0,85,0.00,,---,0.00,VWS V14.01,2013-07-03 04:53:00,
2013-07-02 23:58:00,74.7,69.9,29.95,South,172,2.0,3.0,85,0.00,,---,0.00,VWS V14.01,2013-07-03 04:58:00,